Date,TemperatureHighF,TemperatureAvgF,TemperatureLowF,DewpointHighF,DewpointAvgF,DewpointLowF,HumidityHigh,HumidityAvg,HumidityLow,PressureMaxIn,PressureMinIn,WindSpeedMaxMPH,WindSpeedAvgMPH,GustSpeedMaxMPH,PrecipitationSumIn
2013-10-1,80.2,64.8,49.0,56.1,50.7,45.9,92,63,37,29.98,29.88,9,0,9,0.00
2013-10-2,81.0,67.3,53.7,51.4,46.2,32.7,81,50,28,29.97,29.87,13,2,13,0.00
2013-10-3,73.7,66.8,58.4,39.8,31.9,28.0,42,28,19,30.04,29.92,28,6,31,0.00
2013-10-4,80.6,70.9,62.6,31.2,28.1,23.0,28,21,14,30.09,29.97,30,9,30,0.00
2013-10-5,85.0,71.2,59.9,33.7,26.1,22.3,27,19,13,30.19,30.08,15,3,15,0.00
2013-10-6,86.3,73.6,50.1,41.0,37.1,32.4,56,28,16,30.13,29.96,9,1,9,0.00
2013-10-7,88.5,69.7,52.4,42.4,35.7,22.4,60,32,11,29.98,29.81,8,0,9,0.00
2013-10-8,81.4,68.2,56.6,44.2,38.3,31.6,51,35,18,29.88,29.64,11,1,11,0.00
2013-10-9,75.0,63.4,48.8,45.0,38.6,34.3,77,43,25,29.72,29.58,19,2,19,0.00
2013-10-10,77.0,64.1,52.8,46.7,40.9,34.5,68,44,30,29.96,29.72,8,0,8,0.00
2013-10-11,76.4,61.6,47.2,48.8,45.0,41.7,88,58,32,30.06,29.92,9,0,9,0.00
2013-10-12,78.0,66.5,47.2,49.0,45.7,41.6,86,49,28,29.98,29.82,12,2,12,0.00
2013-10-13,75.9,65.9,58.3,46.6,38.4,34.1,56,38,23,30.02,29.86,22,3,22,0.00
2013-10-14,78.8,66.1,50.6,43.0,36.6,32.0,66,36,19,30.11,29.98,17,2,17,0.00
2013-10-15,69.5,56.7,50.2,37.1,33.7,30.8,58,43,25,30.03,29.99,16,1,16,0.00
2013-10-16,83.5,69.2,53.7,40.4,35.0,27.6,49,30,19,30.09,30.00,10,1,20,0.00
2013-10-17,84.1,67.0,49.8,40.7,36.7,33.2,63,35,18,30.07,29.93,6,0,6,0.00
2013-10-18,84.3,66.5,52.4,45.7,39.7,35.3,62,40,18,30.04,29.94,9,0,10,0.00
2013-10-19,86.0,67.5,50.5,45.5,41.4,37.3,69,41,20,30.07,29.96,5,0,6,0.00
2013-10-20,84.8,67.3,50.7,46.8,42.2,39.1,74,44,21,29.99,29.85,8,0,8,0.00
2013-10-21,83.8,68.5,49.6,47.9,45.1,42.0,78,46,24,29.98,29.88,7,1,7,0.00
2013-10-22,85.5,73.1,52.8,48.3,45.5,42.7,78,39,23,30.00,29.87,9,0,9,0.00
2013-10-23,85.2,65.8,50.5,49.5,44.4,39.5,81,50,22,29.93,29.81,6,0,6,0.00
2013-10-24,77.1,59.4,45.6,49.0,46.1,41.8,91,64,36,30.01,29.87,8,0,8,0.00
2013-10-25,79.8,60.3,46.1,50.8,46.8,43.3,91,64,32,30.16,30.01,8,0,8,0.00
2013-10-26,81.8,63.3,46.5,50.3,46.1,43.0,90,57,26,30.14,29.97,7,0,7,0.00
2013-10-27,68.2,57.4,47.4,49.4,45.0,35.3,86,64,40,29.98,29.53,24,3,24,0.00
2013-10-28,66.5,55.6,44.7,47.5,43.1,38.7,85,65,39,29.81,29.61,13,2,13,0.00
2013-10-29,65.5,55.2,47.3,49.3,45.9,43.8,93,72,48,30.03,29.81,9,0,9,0.00
2013-10-30,70.2,56.8,44.6,49.0,45.5,41.8,92,68,43,30.14,30.03,5,0,5,0.00
2013-10-31,76.0,58.5,45.1,47.7,44.1,40.7,91,62,32,30.17,30.05,5,0,5,0.00